Wind_Speed
9 9 10 12 12 13 13 13 14 14 13 12 11 10 8 8 8 9 11 12 16 18 21 23 22 20 22 22 20 17 14 9 5 8 2 5 6 10 13 17 20 26 30 35 29
14 14 15 16 17 17 17 17 17 18 18 18 17 15 13 12 11 11 12 13 14 17 20 23 27 22 27 29 26 24 24 17 15 14 8 8 6 6 6 9 14 20 25 33 29
21 22 22 22 23 24 24 24 24 23 23 23 23 21 19 16 17 16 15 16 16 18 18 22 27 27 27 32 30 27 29 23 17 18 16 11 8 9 8 8 11 14 20 27 28
24 24 24 24 25 26 28 29 30 30 29 29 29 28 25 22 21 22 22 19 20 20 21 22 25 27 28 33 34 32 29 29 20 19 19 16 13 10 7 6 7 9 16 21 30
20 21 22 23 25 26 27 28 29 30 31 32 33 33 31 27 26 27 25 24 23 22 23 23 25 28 26 31 36 37 32 32 28 21 20 18 18 17 10 6 7 8 9 19 25
17 15 13 12 14 16 18 19 20 21 22 24 26 29 31 27 33 35 30 28 28 26 26 25 28 28 27 27 32 33 35 32 32 27 25 24 22 20 17 12 7 9 5 15 22
7 8 10 12 14 15 14 14 15 16 18 19 19 19 16 15 29 32 35 34 32 32 29 32 31 29 29 27 30 33 33 28 26 32 34 30 25 26 23 16 8 6 7 10 23
9 10 12 13 15 17 16 17 18 18 19 19 20 20 14 20 24 24 29 32 34 35 37 39 37 35 32 32 32 33 30 27 26 33 33 31 28 23 22 20 10 8 6 7 20
14 16 15 14 18 19 16 17 18 20 21 22 21 21 20 21 24 26 24 26 30 32 37 42 42 39 40 36 34 31 30 30 25 30 43 42 39 21 29 28 11 10 8 8 16
18 19 21 21 22 22 21 22 22 22 22 23 21 20 23 24 24 25 27 27 29 30 34 38 42 42 40 39 35 31 34 34 28 27 38 34 39 27 31 25 18 17 13 8 12
23 24 24 23 21 21 22 23 25 22 25 23 24 24 25 26 24 25 27 29 32 33 37 37 40 42 39 33 36 35 36 37 28 29 35 34 38 31 35 30 26 20 14 9 11
23 24 24 23 22 23 22 25 26 22 27 28 29 30 28 27 29 31 33 33 33 34 38 42 44 44 38 34 35 36 36 34 27 32 38 41 40 41 38 33 31 22 19 15 11
24 23 25 23 25 26 27 27 27 26 26 31 30 30 32 32 32 30 33 36 36 37 39 43 45 41 41 37 35 35 35 28 27 35 43 45 45 44 42 39 35 30 24 21 15
24 25 27 27 28 29 30 30 30 30 32 34 37 36 35 34 35 38 39 39 38 38 39 42 44 44 43 44 37 37 27 26 28 39 47 47 47 43 42 42 38 30 29 25 17
26 28 28 29 32 31 32 31 31 32 33 36 36 36 35 37 40 40 41 42 41 38 37 40 40 39 42 41 37 36 26 31 33 39 51 51 53 44 41 41 34 37 34 30 19
28 29 31 30 32 33 32 31 32 33 37 37 35 35 37 39 40 42 40 39 41 41 41 37 39 39 39 39 40 39 35 35 37 40 46 49 53 53 43 43 41 43 41 35 33
30 31 31 31 31 30 31 32 33 34 36 36 34 35 36 39 37 39 40 40 41 41 41 41 39 34 36 35 36 44 41 37 39 38 39 38 46 53 40 34 37 37 45 44 42
29 30 29 30 31 31 32 33 34 36 35 35 36 31 34 38 37 36 38 39 41 40 40 41 37 32 32 34 28 40 42 40 41 41 36 27 36 36 30 27 27 33 39 45 43
31 31 30 31 31 32 33 34 34 35 35 35 33 33 33 36 36 33 34 34 31 33 33 34 32 29 30 32 29 36 46 40 38 41 41 40 33 32 26 26 22 28 34 36 34
32 32 32 32 32 33 34 34 34 35 34 34 32 33 34 34 33 32 31 31 29 24 27 25 28 29 27 30 32 35 37 41 40 44 48 48 45 43 26 22 21 22 25 25 22
34 33 32 32 32 32 32 32 35 35 32 31 33 35 34 35 30 25 30 28 27 22 16 27 31 28 25 31 33 38 38 39 43 48 46 34 34 38 26 24 21 23 28 25 23
34 33 32 33 32 30 31 32 33 31 32 32 35 34 34 32 26 20 26 30 29 30 29 28 29 30 20 18 28 37 40 42 34 19 31 34 30 26 28 25 25 27 28 27 27
32 32 32 32 30 31 31 31 28 30 32 33 35 34 32 28 22 20 21 24 28 35 32 32 34 32 29 24 22 19 28 43 45 32 32 33 33 22 31 27 37 27 28 26 25
32 31 32 31 31 30 30 29 26 29 31 34 33 29 23 22 20 21 23 20 28 29 31 29 25 27 27 27 20 20 27 26 42 41 37 42 38 31 27 28 39 31 22 24 25
32 31 31 31 31 30 29 27 25 29 33 34 31 26 20 20 20 23 24 24 21 30 30 28 25 26 25 25 23 24 24 27 32 45 41 37 37 41 32 29 33 35 32 29 28
31 30 30 31 31 30 28 26 25 28 32 33 32 24 24 26 27 20 21 26 26 22 33 35 35 33 22 22 24 27 21 20 20 35 41 40 34 31 26 30 32 33 33 33 32
29 29 30 31 31 30 27 26 29 28 32 30 29 27 28 27 26 25 24 17 19 21 25 32 34 29 30 25 24 26 31 19 13 21 26 29 41 43 32 33 31 30 33 36 37
Wind_Direction
309 308 308 305 303 301 299 298 295 293 293 290 284 284 282 274 270 265 259 251 240 244 251 252 247 237 247 255 263 257 235 218 265 315 27 37 45 50 28 18 10 8 3 357 1
293 293 293 293 294 294 293 292 291 291 292 291 286 282 279 276 269 264 262 260 253 250 246 247 251 248 245 255 261 259 255 259 280 310 330 322 335 356 39 26 13 12 4 359 358
292 292 291 290 289 289 289 289 289 288 288 288 288 288 285 283 279 272 262 260 260 256 250 247 248 254 247 250 254 254 250 260 267 288 302 318 298 316 335 39 32 13 4 355 354
294 292 290 289 287 284 282 281 281 282 282 281 280 281 282 282 280 273 276 269 263 260 258 251 252 253 251 250 254 252 252 255 261 274 286 320 287 293 304 10 18 14 353 350 347
284 284 284 285 283 281 279 277 275 274 273 270 270 271 271 273 273 270 271 270 264 263 260 258 253 253 249 249 255 261 256 256 260 271 277 291 287 280 289 338 7 359 331 339 340
296 302 308 315 311 306 306 304 300 292 291 293 292 288 285 287 267 266 260 259 260 256 254 253 254 262 261 256 259 265 266 263 259 259 269 284 286 263 266 278 288 323 329 328 330
307 316 324 327 323 320 323 323 316 314 314 312 308 295 296 264 271 276 272 264 258 256 248 250 250 251 257 253 254 260 265 271 270 260 265 274 271 246 248 259 270 269 283 314 316
299 308 309 313 316 310 311 308 311 313 311 303 303 304 310 285 281 273 270 272 270 264 267 265 256 251 247 250 248 254 264 266 259 262 262 261 265 245 248 256 252 242 275 296 311
290 295 296 301 304 306 302 304 310 305 298 296 294 293 291 287 283 287 281 272 275 265 258 259 263 265 263 253 249 249 255 256 249 246 250 256 258 224 241 251 253 236 251 269 306
297 301 301 301 302 303 303 304 314 313 299 290 293 292 289 289 289 290 290 288 281 274 266 265 266 258 253 254 261 255 249 247 240 236 245 248 251 215 236 244 240 233 238 265 292
298 300 300 302 300 306 302 299 305 307 290 295 296 294 297 295 292 293 283 287 286 282 276 268 267 266 261 259 260 253 250 249 238 227 239 241 241 226 235 237 236 242 248 256 276
292 293 293 293 295 302 305 309 308 309 300 301 298 297 297 294 293 284 287 285 283 284 277 273 276 266 260 258 257 255 253 246 235 220 229 227 234 229 239 240 245 253 251 250 259
287 288 292 294 300 303 305 306 306 301 296 296 297 297 295 293 293 287 287 287 284 280 276 273 269 259 257 254 252 256 254 245 236 218 224 226 229 227 234 244 245 261 257 256 252
287 291 292 293 296 298 297 297 298 295 293 296 301 305 305 301 297 297 295 295 291 288 280 273 267 256 253 253 248 252 261 253 235 225 222 231 239 231 230 244 256 262 259 256 250
290 290 292 291 292 292 294 296 297 295 296 298 300 300 300 298 296 299 298 295 293 285 278 279 271 258 246 247 252 253 246 247 235 232 226 229 241 235 230 236 243 263 259 257 244
289 289 290 291 291 291 292 295 296 296 295 298 299 301 297 297 297 297 295 292 289 285 281 273 269 255 248 236 238 244 237 239 230 228 231 232 238 239 238 234 244 252 253 253 256
287 287 287 289 290 291 293 294 295 295 300 300 301 299 297 296 297 297 295 292 285 281 278 273 267 264 246 235 237 237 238 240 234 234 238 238 239 241 241 245 246 238 243 250 252
285 288 290 289 292 295 296 296 296 299 298 297 298 297 296 299 301 297 294 289 285 284 283 282 279 260 242 235 239 233 238 240 248 241 241 243 244 242 241 247 244 242 238 243 248
288 292 293 292 293 295 296 297 299 298 297 299 299 300 298 302 303 302 285 278 273 275 278 277 287 268 238 231 232 232 234 239 247 250 248 236 240 248 241 244 241 238 249 253 257
291 293 295 294 296 298 298 298 296 296 298 299 301 303 306 303 304 303 280 271 261 266 272 276 285 269 243 236 233 246 242 247 250 248 240 236 239 247 241 241 229 233 235 248 246
289 292 293 294 296 295 294 292 294 297 298 300 302 306 307 305 305 291 269 258 258 246 258 264 270 271 271 240 238 247 247 252 258 251 250 247 241 243 230 223 219 226 224 226 225
290 290 292 293 295 293 290 291 294 297 298 300 303 307 309 307 304 288 274 262 256 262 254 256 265 271 264 264 251 248 250 246 257 280 274 260 230 235 233 221 216 221 216 220 216
287 288 289 291 291 290 290 293 296 295 297 304 305 308 307 306 298 289 280 257 248 260 263 253 262 263 270 284 262 263 260 244 246 249 261 272 225 242 234 229 221 224 230 216 225
283 285 287 286 288 287 289 292 291 292 297 301 304 304 302 305 295 286 276 268 250 263 271 249 267 267 268 275 276 266 259 254 248 250 257 270 247 241 238 235 226 227 224 224 218
281 282 281 283 285 285 287 288 291 294 297 300 304 299 288 280 279 279 280 279 273 244 261 259 260 267 268 260 276 285 263 240 237 244 249 262 256 252 257 252 241 242 233 234 221
278 278 279 281 283 283 285 287 291 294 298 301 304 292 283 280 278 275 291 279 271 255 244 256 263 270 270 275 275 280 288 231 215 234 240 246 249 255 252 248 241 238 235 242 242
277 276 277 279 281 280 281 288 289 294 297 300 299 292 287 293 290 289 301 287 254 252 245 250 257 266 272 268 263 281 285 258 213 224 235 235 240 246 253 255 241 246 246 246 251
Height
5919 5919 5919 5919 5919 5919 5919 5919 5918 5918 5918 5919 5919 5919 5919 5919 5919 5917 5917 5918 5917 5917 5917 5917 5918 5921 5920 5919 5918 5916 5916 5913 5912 5914 5911 5908 5907 5905 5908 5907 5907 5906 5902 5898 5894
5918 5918 5918 5918 5917 5917 5917 5916 5916 5916 5916 5916 5917 5917 5916 5917 5916 5915 5916 5915 5915 5914 5913 5914 5913 5917 5917 5916 5916 5915 5915 5915 5913 5912 5912 5910 5908 5908 5907 5907 5908 5907 5904 5900 5898
5916 5915 5915 5915 5914 5914 5913 5913 5912 5912 5912 5912 5912 5912 5913 5914 5913 5912 5913 5912 5912 5912 5911 5910 5910 5912 5913 5911 5912 5913 5913 5914 5913 5912 5910 5909 5909 5909 5907 5907 5908 5907 5905 5902 5900
5911 5910 5910 5910 5909 5908 5908 5907 5907 5908 5908 5907 5907 5907 5907 5909 5910 5907 5907 5909 5908 5907 5907 5907 5906 5906 5907 5907 5906 5907 5910 5910 5912 5911 5910 5909 5908 5907 5908 5907 5907 5906 5905 5902 5902
5906 5905 5904 5903 5902 5902 5901 5901 5901 5900 5900 5899 5899 5900 5901 5903 5902 5901 5902 5901 5901 5902 5903 5903 5902 5899 5901 5902 5901 5901 5907 5907 5909 5910 5907 5908 5907 5906 5906 5907 5906 5905 5903 5903 5901
5902 5901 5901 5900 5899 5898 5897 5897 5897 5895 5894 5894 5894 5895 5895 5899 5892 5891 5894 5894 5894 5895 5895 5896 5896 5897 5899 5899 5897 5898 5900 5902 5906 5907 5905 5904 5904 5905 5905 5904 5904 5906 5903 5903 5900
5900 5900 5899 5899 5898 5897 5895 5895 5894 5892 5891 5890 5889 5889 5890 5888 5885 5887 5886 5887 5888 5887 5888 5888 5888 5890 5891 5893 5892 5891 5892 5898 5901 5903 5902 5901 5903 5900 5901 5902 5903 5903 5903 5902 5899
5899 5898 5898 5897 5896 5895 5894 5893 5891 5890 5889 5887 5886 5885 5885 5883 5879 5879 5878 5879 5881 5884 5885 5882 5882 5883 5884 5885 5886 5886 5888 5891 5897 5896 5895 5894 5895 5899 5896 5899 5900 5900 5901 5900 5898
5897 5896 5895 5895 5893 5892 5891 5890 5889 5887 5885 5883 5882 5881 5880 5879 5876 5875 5875 5874 5873 5875 5875 5874 5875 5878 5878 5879 5880 5882 5883 5884 5887 5887 5886 5887 5888 5897 5892 5894 5897 5897 5897 5897 5896
5894 5892 5891 5891 5889 5888 5887 5885 5884 5883 5879 5877 5877 5878 5875 5874 5872 5871 5870 5869 5868 5867 5867 5865 5865 5867 5868 5871 5876 5878 5876 5875 5878 5880 5876 5880 5880 5889 5887 5889 5892 5892 5893 5893 5895
5889 5888 5887 5886 5885 5884 5883 5882 5882 5880 5873 5873 5872 5871 5870 5869 5869 5867 5863 5862 5862 5861 5859 5859 5856 5855 5862 5867 5867 5868 5869 5871 5874 5872 5871 5874 5874 5880 5880 5883 5886 5888 5889 5888 5891
5885 5884 5882 5882 5880 5879 5878 5876 5874 5873 5866 5866 5865 5865 5864 5863 5861 5858 5856 5856 5854 5854 5853 5851 5847 5849 5855 5858 5858 5858 5862 5864 5867 5866 5864 5865 5867 5873 5875 5879 5882 5882 5883 5884 5886
5880 5879 5877 5876 5874 5873 5872 5871 5869 5867 5864 5860 5860 5859 5858 5855 5851 5849 5848 5846 5845 5844 5843 5841 5841 5843 5843 5846 5848 5850 5853 5858 5862 5858 5858 5858 5860 5864 5868 5870 5875 5877 5879 5879 5881
5874 5873 5871 5870 5870 5867 5866 5865 5863 5861 5858 5856 5851 5850 5848 5845 5842 5839 5838 5838 5835 5834 5833 5831 5832 5834 5834 5835 5841 5841 5849 5849 5851 5852 5853 5850 5850 5857 5863 5864 5867 5870 5871 5874 5876
5869 5867 5866 5864 5862 5862 5860 5857 5855 5853 5850 5849 5846 5843 5840 5837 5834 5831 5828 5826 5823 5823 5823 5823 5823 5826 5825 5829 5835 5835 5841 5839 5840 5840 5841 5845 5841 5849 5855 5859 5862 5864 5864 5867 5870
5862 5861 5858 5858 5856 5855 5852 5850 5848 5847 5842 5840 5838 5836 5833 5828 5825 5821 5819 5817 5813 5811 5809 5811 5812 5815 5817 5821 5824 5828 5829 5829 5830 5832 5832 5838 5838 5842 5851 5854 5857 5858 5857 5859 5862
5856 5855 5853 5851 5850 5848 5846 5843 5841 5838 5836 5833 5831 5827 5822 5819 5816 5811 5807 5805 5803 5801 5799 5799 5800 5806 5809 5811 5815 5818 5822 5823 5824 5826 5827 5831 5832 5837 5844 5846 5848 5848 5849 5850 5852
5849 5848 5846 5844 5842 5840 5838 5836 5833 5830 5827 5823 5821 5820 5814 5809 5807 5802 5797 5794 5790 5790 5789 5789 5793 5797 5801 5804 5810 5813 5815 5817 5815 5819 5822 5826 5826 5832 5839 5837 5839 5840 5841 5841 5844
5841 5840 5838 5836 5834 5832 5830 5827 5824 5822 5818 5816 5812 5809 5806 5802 5798 5795 5790 5788 5785 5783 5785 5784 5787 5788 5792 5798 5803 5805 5805 5810 5809 5810 5812 5818 5821 5824 5831 5831 5833 5835 5836 5837 5839
5833 5831 5830 5828 5825 5823 5821 5818 5815 5812 5810 5806 5803 5801 5797 5792 5789 5786 5782 5782 5782 5781 5779 5781 5782 5783 5788 5791 5794 5796 5800 5800 5800 5800 5801 5806 5812 5817 5826 5825 5825 5829 5830 5832 5835
5824 5822 5821 5819 5818 5815 5812 5809 5806 5803 5801 5799 5794 5790 5788 5785 5781 5778 5777 5778 5778 5778 5776 5778 5778 5782 5783 5786 5788 5790 5790 5792 5790 5793 5794 5802 5806 5812 5817 5815 5818 5821 5824 5825 5829
5815 5814 5812 5810 5810 5807 5804 5801 5799 5795 5792 5789 5786 5783 5779 5775 5772 5772 5772 5773 5773 5772 5774 5774 5773 5774 5780 5780 5781 5783 5782 5786 5785 5787 5789 5795 5802 5806 5806 5808 5810 5815 5817 5821 5823
5805 5804 5803 5802 5800 5797 5795 5793 5790 5787 5783 5780 5777 5775 5771 5768 5766 5765 5767 5769 5768 5767 5768 5768 5768 5770 5773 5775 5775 5776 5778 5781 5783 5784 5786 5788 5795 5800 5800 5803 5806 5809 5812 5814 5816
5797 5796 5794 5793 5791 5789 5787 5786 5783 5780 5776 5773 5771 5768 5764 5760 5759 5759 5758 5760 5762 5761 5762 5759 5762 5764 5767 5768 5768 5769 5771 5772 5775 5777 5782 5780 5789 5792 5794 5797 5799 5803 5806 5806 5810
5787 5787 5785 5785 5783 5781 5780 5778 5776 5772 5769 5766 5764 5761 5757 5754 5753 5752 5751 5751 5754 5755 5754 5755 5755 5757 5760 5760 5763 5762 5763 5764 5767 5772 5774 5777 5782 5785 5790 5791 5793 5795 5799 5801 5804
5778 5777 5776 5775 5775 5773 5772 5771 5769 5764 5762 5759 5756 5754 5750 5748 5745 5747 5746 5744 5744 5747 5747 5748 5749 5750 5755 5757 5758 5756 5759 5754 5757 5763 5766 5770 5775 5780 5783 5783 5786 5789 5792 5794 5795
5768 5768 5767 5767 5765 5765 5764 5762 5761 5759 5755 5753 5751 5748 5744 5743 5742 5741 5740 5739 5737 5738 5740 5741 5741 5744 5748 5753 5754 5753 5749 5747 5747 5757 5759 5763 5768 5772 5775 5777 5778 5779 5781 5783 5786